Weather History for Winner, SD

Change the Weather History Date:

Saturday, June 1, 2013

  Actual Average Record
Temperature  
Mean Temperature 55 °F 63 °F  
Max Temperature 64 °F 75 °F 81 °F (2008)
Min Temperature 46 °F 51 °F 44 °F (2011)
Degree Days  
Heating Degree Days 10 4  
Month to date heating degree days 10 4  
Since 1 June heating degree days 10 4  
Since 1 July heating degree days 6652 6649  
Cooling Degree Days 0 2  
Month to date cooling degree days 0 2  
Year to date cooling degree days 39 32  
Since 1 June cooling degree days 0 2  
Growing Degree Days 6 (Base 50)    
Moisture  
Dew Point 48 °F    
Average Humidity 80    
Maximum Humidity 100    
Minimum Humidity 60    
Precipitation  
Precipitation 0.14 in 0.13 in 0.37 in (2014)
Month to date precipitation 0.14 0.13  
Year to date precipitation 7.53 8.20  
Sea Level Pressure  
Sea Level Pressure 29.94 in    
Wind  
Wind Speed 19 mph (NW)    
Max Wind Speed 30 mph    
Max Gust Speed 38 mph    
Visibility 6 miles    
Events Rain    
T = Trace of Precipitation, MM = Missing Value Source: NWS Daily Summary

Daily Weather History Graph

Daily Weather History Graph

Search for Another Location

Airport:

Trip Planner

Search our weather history database for the weather conditions in past years. The results will help you decide how hot, cold, wet, or windy it might be!

Date:

Astronomy

Jun. 01, 2013 Rise Set
Actual Time 6:01 AM CDT 9:13 PM CDT
Civil Twilight 5:26 AM CDT 9:48 PM CDT
Nautical Twilight 4:41 AM CDT 10:33 PM CDT
Astronomical Twilight 3:47 AM CDT 11:28 PM CDT
Moon 2:09 AM CDT (6/1) 2:34 PM CDT (6/1)
Length of Visible Light 16h 21m
Length of Day
15h 11m
Last Quarter, 40% of the Moon is Illuminated
Jun 1
Last Quarter
Jun 8
New
Jun 16
First Quarter
Jun 23
Full
Jun 29
Last Quarter

Hourly Weather History & Observations

Time (CDT) Temp. Dew Point Humidity Pressure Visibility Wind Dir Wind Speed Gust Speed Precip Events Conditions
12:24 AM 53.6 °F 51.8 °F 94% 29.69 in 7.0 mi WNW 24.2 mph 28.8 mph 0.00 in Rain Light Rain
12:53 AM 53.1 °F 51.1 °F 93% 29.69 in 7.0 mi WNW 23.0 mph 29.9 mph 0.00 in Rain Light Rain
1:25 AM 53.6 °F 51.8 °F 94% 29.71 in 3.0 mi WNW 20.7 mph 27.6 mph 0.00 in Rain Light Rain
1:45 AM 53.6 °F 53.6 °F 100% 29.71 in 2.5 mi NW 24.2 mph 31.1 mph 0.01 in Rain Light Rain
1:53 AM 54.0 °F 53.1 °F 97% 29.71 in 3.0 mi NW 20.7 mph 31.1 mph 0.01 in Rain Light Rain
2:00 AM 53.6 °F 51.8 °F 94% 29.72 in 4.0 mi NW 24.2 mph 34.5 mph 0.02 in Rain Rain
2:53 AM 52.0 °F 51.1 °F 97% 29.74 in 10.0 mi NW 25.3 mph 36.8 mph 0.03 in Rain Light Rain
3:26 AM 51.8 °F 50.0 °F 94% 29.76 in 10.0 mi NNW 21.9 mph 32.2 mph 0.01 in Rain Light Rain
3:39 AM 51.8 °F 50.0 °F 94% 29.77 in 10.0 mi NNW 23.0 mph 31.1 mph 0.01 in Rain Light Rain
3:53 AM 51.1 °F 48.9 °F 92% 29.78 in 10.0 mi NNW 26.5 mph 35.7 mph 0.01 in   Overcast
4:10 AM 50.0 °F 48.2 °F 94% 29.78 in 3.0 mi NW 24.2 mph 34.5 mph 0.02 in Rain Rain
4:53 AM 50.0 °F 48.0 °F 93% 29.81 in 10.0 mi NNW 21.9 mph 33.4 mph 0.03 in Rain Light Rain
5:53 AM 50.0 °F 46.9 °F 89% 29.84 in 9.0 mi NW 25.3 mph 36.8 mph 0.02 in Rain Light Rain
6:40 AM 50.0 °F 46.4 °F 87% 29.87 in 10.0 mi NW 23.0 mph 29.9 mph 0.00 in   Overcast
6:53 AM 50.0 °F 46.9 °F 89% 29.88 in 7.0 mi NNW 24.2 mph 35.7 mph 0.00 in   Overcast
7:30 AM 48.2 °F 46.4 °F 93% 29.90 in 6.0 mi NNW 21.9 mph 31.1 mph 0.00 in Rain Light Rain
7:53 AM 48.9 °F 46.9 °F 93% 29.91 in 5.0 mi NW 26.5 mph 34.5 mph 0.00 in Rain Light Rain
8:23 AM 48.2 °F 46.4 °F 93% 29.93 in 10.0 mi NW 24.2 mph 33.4 mph 0.00 in   Overcast
8:53 AM 48.9 °F 46.0 °F 90% 29.96 in 10.0 mi NNW 21.9 mph 32.2 mph 0.00 in   Overcast
9:31 AM 48.2 °F 46.4 °F 93% 29.97 in 3.0 mi NW 17.3 mph 25.3 mph 0.00 in Rain Light Rain
9:37 AM 48.2 °F 46.4 °F 93% 29.97 in 2.5 mi NW 19.6 mph - 0.00 in Rain Light Rain
9:51 AM 48.2 °F 46.4 °F 93% 29.97 in 2.0 mi NW 20.7 mph 27.6 mph 0.01 in Rain Light Rain
9:53 AM 48.9 °F 46.9 °F 93% 29.98 in 2.0 mi NW 20.7 mph 27.6 mph 0.01 in Rain Light Rain
10:01 AM 48.2 °F 46.4 °F 93% 29.97 in 2.5 mi NW 20.7 mph 27.6 mph 0.01 in Rain Light Rain
10:20 AM 50.0 °F 46.4 °F 87% 29.98 in 7.0 mi NW 23.0 mph 33.4 mph 0.02 in Rain Light Rain
10:35 AM 50.0 °F 48.2 °F 94% 29.99 in 2.5 mi NW 24.2 mph 31.1 mph 0.02 in Rain Light Rain
10:39 AM 50.0 °F 48.2 °F 94% 29.99 in 2.0 mi NW 23.0 mph 31.1 mph 0.02 in Rain Light Rain
10:44 AM 50.0 °F 48.2 °F 94% 29.99 in 2.5 mi NW 20.7 mph 29.9 mph 0.02 in Rain Light Rain
10:48 AM 50.0 °F 48.2 °F 94% 29.99 in 2.0 mi NW 21.9 mph 29.9 mph 0.02 in Rain Light Rain
10:53 AM 50.0 °F 48.0 °F 93% 30.00 in 2.0 mi NW 23.0 mph 28.8 mph 0.02 in Rain Light Rain
10:56 AM 50.0 °F 48.2 °F 94% 30.00 in 2.0 mi NW 20.7 mph 28.8 mph 0.00 in Rain Light Rain
11:13 AM 50.0 °F 48.2 °F 94% 30.00 in 3.0 mi NW 24.2 mph 33.4 mph 0.01 in Rain Light Rain
11:33 AM 50.0 °F 48.2 °F 94% 30.01 in 2.5 mi NNW 24.2 mph 32.2 mph 0.01 in Rain Light Rain
11:37 AM 50.0 °F 48.2 °F 94% 30.02 in 3.0 mi NNW 24.2 mph 32.2 mph 0.01 in Rain Light Rain
11:44 AM 50.0 °F 48.2 °F 94% 30.02 in 4.0 mi NNW 23.0 mph 31.1 mph 0.01 in Rain Light Rain
11:53 AM 50.0 °F 46.9 °F 89% 30.03 in 9.0 mi NNW 19.6 mph 29.9 mph 0.01 in Rain Light Rain
12:53 PM 51.1 °F 46.0 °F 83% 30.04 in 10.0 mi NNW 21.9 mph 32.2 mph 0.00 in Rain Light Rain
1:53 PM 53.1 °F 46.9 °F 80% 30.04 in 10.0 mi NNW 20.7 mph 29.9 mph N/A   Overcast
2:53 PM 55.9 °F 48.0 °F 75% 30.04 in 10.0 mi NNW 25.3 mph 31.1 mph N/A   Overcast
3:53 PM 59.0 °F 48.0 °F 67% 30.05 in 10.0 mi NNW 21.9 mph 29.9 mph N/A   Overcast
4:53 PM 59.0 °F 48.9 °F 69% 30.06 in 10.0 mi NNW 20.7 mph 29.9 mph N/A   Overcast
5:53 PM 63.0 °F 50.0 °F 63% 30.06 in 10.0 mi NNW 21.9 mph 26.5 mph N/A   Overcast
6:53 PM 61.0 °F 46.0 °F 58% 30.07 in 10.0 mi North 20.7 mph 26.5 mph N/A   Partly Cloudy
7:53 PM 59.0 °F 46.0 °F 62% 30.10 in 10.0 mi North 11.5 mph - N/A   Clear
8:53 PM 55.0 °F 46.9 °F 74% 30.11 in 10.0 mi North 8.1 mph - N/A   Partly Cloudy
9:53 PM 51.1 °F 46.0 °F 83% 30.13 in 10.0 mi NNW 5.8 mph - N/A   Clear
10:53 PM 48.9 °F 44.1 °F 83% 30.15 in 10.0 mi NW 5.8 mph - N/A   Clear
11:53 PM 48.0 °F 44.1 °F 86% 30.15 in 10.0 mi WNW 4.6 mph - N/A   Clear